• In Uzbekistan
  • List of Countries
  • For 7 days
  • Water Temperature
  • Satellite Maps
  • Weather Map
  • Weather Widgets
  • user-avatar
    Login

    Hourly Weather Konstantyna

    Today, 23 May, Tuesday

    Time Temperature Precipitation Wind Pressure Humidity
    00:00 +16°C° 0 mm 1 mps 709 mmHg 67%
    01:00 +16°C° 0.1 mm 1 mps 709 mmHg 70%
    02:00 +16°C° 0.1 mm 1 mps 709 mmHg 73%
    03:00 +16°C° 0.1 mm 1 mps 709 mmHg 76%
    04:00 +17°C° 0.1 mm 0 mps 709 mmHg 70%
    05:00 +19°C° 0.1 mm 0 mps 710 mmHg 63%
    06:00 +21°C° 0.1 mm 0 mps 711 mmHg 56%
    07:00 +23°C° 0 mm 0 mps 711 mmHg 49%
    08:00 +27°C° 0 mm 1 mps 711 mmHg 41%
    09:00 +30°C° 0 mm 1 mps 712 mmHg 34%
    10:00 +31°C° 0 mm 1 mps 712 mmHg 31%
    11:00 +32°C° 0 mm 2 mps 712 mmHg 29%
    12:00 +34°C° 0 mm 2 mps 712 mmHg 26%
    13:00 +31°C° 0.3 mm 2 mps 712 mmHg 32%
    14:00 +29°C° 0.3 mm 2 mps 711 mmHg 37%
    15:00 +28°C° 0.3 mm 2 mps 711 mmHg 43%
    16:00 +26°C° 0.2 mm 2 mps 711 mmHg 49%
    17:00 +25°C° 0.2 mm 2 mps 711 mmHg 55%
    18:00 +23°C° 0.2 mm 2 mps 711 mmHg 61%
    19:00 +21°C° 0.4 mm 1 mps 711 mmHg 70%
    20:00 +19°C° 0.4 mm 1 mps 711 mmHg 78%
    21:00 +16°C° 0.4 mm 1 mps 711 mmHg 87%
    22:00 +16°C° 0.1 mm 1 mps 711 mmHg 88%
    23:00 +15°C° 0.1 mm 1 mps 711 mmHg 88%

    Tomorrow, 24 May, Wednesday

    Time Temperature Precipitation Wind Pressure Humidity
    00:00 +14°C° 0.1 mm 0 mps 711 mmHg 89%
    01:00 +14°C° 0 mm 0 mps 710 mmHg 90%
    02:00 +13°C° 0 mm 0 mps 710 mmHg 90%
    03:00 +13°C° 0 mm 0 mps 710 mmHg 91%
    04:00 +15°C° 0 mm 0 mps 710 mmHg 84%
    05:00 +17°C° 0 mm 0 mps 711 mmHg 77%
    06:00 +18°C° 0 mm 0 mps 711 mmHg 70%
    07:00 +23°C° 0 mm 1 mps 712 mmHg 60%
    08:00 +25°C° 0 mm 1 mps 712 mmHg 51%
    09:00 +28°C° 0 mm 1 mps 713 mmHg 42%
    10:00 +29°C° 0 mm 1 mps 713 mmHg 37%
    11:00 +30°C° 0 mm 2 mps 712 mmHg 33%
    12:00 +31°C° 0 mm 2 mps 712 mmHg 28%
    13:00 +31°C° 0 mm 2 mps 712 mmHg 29%
    14:00 +31°C° 0 mm 3 mps 712 mmHg 29%
    15:00 +31°C° 0 mm 3 mps 711 mmHg 30%
    16:00 +29°C° 0 mm 3 mps 711 mmHg 36%
    17:00 +27°C° 0 mm 3 mps 711 mmHg 42%
    18:00 +25°C° 0 mm 2 mps 711 mmHg 48%
    19:00 +23°C° 0 mm 2 mps 711 mmHg 57%
    20:00 +20°C° 0 mm 1 mps 711 mmHg 66%
    21:00 +18°C° 0 mm 1 mps 711 mmHg 76%
    22:00 +16°C° 0 mm 1 mps 710 mmHg 77%
    23:00 +16°C° 0 mm 1 mps 710 mmHg 79%

    Day after tomorrow, 25 May, Thursday

    Time Temperature Precipitation Wind Pressure Humidity
    00:00 +16°C° 0 mm 1 mps 710 mmHg 80%
    01:00 +15°C° 0 mm 1 mps 710 mmHg 81%
    02:00 +15°C° 0 mm 1 mps 710 mmHg 81%
    03:00 +14°C° 0 mm 0 mps 709 mmHg 82%
    04:00 +16°C° 0 mm 0 mps 710 mmHg 72%
    05:00 +18°C° 0 mm 0 mps 710 mmHg 63%
    06:00 +21°C° 0 mm 0 mps 711 mmHg 54%
    07:00 +25°C° 0 mm 1 mps 711 mmHg 47%
    08:00 +28°C° 0 mm 1 mps 711 mmHg 39%
    09:00 +31°C° 0 mm 2 mps 712 mmHg 32%
    10:00 +32°C° 0 mm 2 mps 712 mmHg 29%
    11:00 +34°C° 0 mm 3 mps 712 mmHg 27%
    12:00 +35°C° 0 mm 3 mps 711 mmHg 24%
    13:00 +34°C° 0 mm 3 mps 711 mmHg 26%
    14:00 +33°C° 0 mm 3 mps 711 mmHg 27%
    15:00 +33°C° 0 mm 4 mps 710 mmHg 29%
    16:00 +30°C° 0 mm 3 mps 710 mmHg 34%
    17:00 +28°C° 0 mm 2 mps 710 mmHg 40%
    18:00 +26°C° 0 mm 2 mps 710 mmHg 46%
    19:00 +24°C° 0 mm 1 mps 710 mmHg 55%
    20:00 +21°C° 0 mm 1 mps 710 mmHg 64%
    21:00 +16°C° 0 mm 0 mps 710 mmHg 73%
    22:00 +19°C° 0 mm 1 mps 710 mmHg 71%
    23:00 +19°C° 0 mm 1 mps 710 mmHg 69%

    26 May, Friday

    Time Temperature Precipitation Wind Pressure Humidity
    00:00 +19°C° 0 mm 1 mps 709 mmHg 67%
    01:00 +19°C° 0 mm 1 mps 709 mmHg 66%
    02:00 +20°C° 0 mm 1 mps 709 mmHg 65%
    03:00 +20°C° 0 mm 1 mps 708 mmHg 63%
    04:00 +21°C° 0 mm 1 mps 709 mmHg 60%
    05:00 +22°C° 0 mm 1 mps 709 mmHg 57%
    06:00 +24°C° 0 mm 1 mps 709 mmHg 53%
    07:00 +27°C° 0 mm 1 mps 709 mmHg 45%
    08:00 +30°C° 0 mm 1 mps 710 mmHg 37%
    09:00 +34°C° 0 mm 2 mps 710 mmHg 29%
    10:00 +35°C° 0 mm 2 mps 710 mmHg 26%
    11:00 +36°C° 0 mm 3 mps 710 mmHg 23%
    12:00 +37°C° 0 mm 3 mps 710 mmHg 21%
    13:00 +36°C° 0.1 mm 3 mps 709 mmHg 23%
    14:00 +35°C° 0.1 mm 3 mps 709 mmHg 26%
    15:00 +34°C° 0.1 mm 3 mps 709 mmHg 29%
    16:00 +31°C° 0 mm 2 mps 708 mmHg 32%
    17:00 +30°C° 0 mm 2 mps 708 mmHg 36%
    18:00 +28°C° 0 mm 1 mps 708 mmHg 40%
    19:00 +26°C° 0.2 mm 1 mps 708 mmHg 46%
    20:00 +24°C° 0.2 mm 1 mps 708 mmHg 51%
    21:00 +22°C° 0.2 mm 1 mps 708 mmHg 57%
    22:00 +22°C° 0.2 mm 1 mps 708 mmHg 59%
    23:00 +21°C° 0.2 mm 2 mps 708 mmHg 61%

    27 May, Saturday

    Time Temperature Precipitation Wind Pressure Humidity
    00:00 +21°C° 0.2 mm 2 mps 708 mmHg 64%
    01:00 +21°C° 0.4 mm 2 mps 707 mmHg 65%
    02:00 +21°C° 0.4 mm 2 mps 707 mmHg 66%
    03:00 +21°C° 0.4 mm 2 mps 707 mmHg 66%
    04:00 +23°C° 0.1 mm 2 mps 707 mmHg 64%
    05:00 +23°C° 0.1 mm 2 mps 707 mmHg 61%
    06:00 +24°C° 0.1 mm 2 mps 707 mmHg 58%
    07:00 +27°C° 0 mm 2 mps 708 mmHg 48%
    08:00 +30°C° 0 mm 3 mps 708 mmHg 38%
    09:00 +34°C° 0 mm 3 mps 709 mmHg 28%
    10:00 +35°C° 0 mm 4 mps 709 mmHg 25%
    11:00 +37°C° 0 mm 4 mps 709 mmHg 23%
    12:00 +38°C° 0 mm 4 mps 709 mmHg 20%
    13:00 +37°C° 0 mm 4 mps 708 mmHg 23%
    14:00 +36°C° 0 mm 4 mps 708 mmHg 26%
    15:00 +35°C° 0 mm 4 mps 708 mmHg 29%
    16:00 +33°C° 0 mm 3 mps 708 mmHg 36%
    17:00 +30°C° 0 mm 2 mps 707 mmHg 43%
    18:00 +28°C° 0 mm 2 mps 707 mmHg 50%
    19:00 +26°C° 0.1 mm 2 mps 707 mmHg 58%
    20:00 +24°C° 0.1 mm 1 mps 708 mmHg 66%
    21:00 +22°C° 0.1 mm 1 mps 708 mmHg 75%
    22:00 +22°C° 0 mm 1 mps 707 mmHg 74%
    23:00 +22°C° 0 mm 1 mps 707 mmHg 73%

    28 May, Sunday

    Time Temperature Precipitation Wind Pressure Humidity
    00:00 +21°C° 0 mm 1 mps 707 mmHg 72%
    01:00 +22°C° 0 mm 1 mps 707 mmHg 68%
    02:00 +22°C° 0 mm 1 mps 706 mmHg 65%
    03:00 +22°C° 0 mm 1 mps 706 mmHg 61%
    04:00 +23°C° 0.3 mm 1 mps 707 mmHg 60%
    05:00 +24°C° 0.3 mm 1 mps 707 mmHg 59%
    06:00 +24°C° 0.3 mm 1 mps 707 mmHg 58%
    07:00 +28°C° 0 mm 1 mps 708 mmHg 47%
    08:00 +31°C° 0 mm 1 mps 708 mmHg 37%
    09:00 +35°C° 0 mm 2 mps 708 mmHg 26%
    10:00 +37°C° 0 mm 2 mps 708 mmHg 24%
    11:00 +38°C° 0 mm 3 mps 708 mmHg 22%
    12:00 +40°C° 0 mm 4 mps 708 mmHg 19%
    13:00 +38°C° 0 mm 3 mps 708 mmHg 22%
    14:00 +37°C° 0 mm 3 mps 708 mmHg 24%
    15:00 +37°C° 0 mm 3 mps 708 mmHg 26%
    16:00 +34°C° 0 mm 3 mps 707 mmHg 33%
    17:00 +31°C° 0 mm 3 mps 707 mmHg 41%
    18:00 +29°C° 0 mm 2 mps 707 mmHg 48%
    19:00 +27°C° 0 mm 2 mps 707 mmHg 56%
    20:00 +25°C° 0 mm 2 mps 707 mmHg 65%
    21:00 +22°C° 0 mm 1 mps 707 mmHg 73%
    22:00 +22°C° 0 mm 1 mps 706 mmHg 73%
    23:00 +22°C° 0 mm 1 mps 706 mmHg 73%
    Show more